AMOS-4

Last updated on Thu Sep 10 2026 00:02:57 GMT+0000 (Coordinated Universal Time)

1 39237U 13045A 26252.59848836 -.00000014 00000+0 00000+0 0 9999 2 39237 0.0530 259.7393 0001221 248.9919 120.3899 1.00271658 47801
UTC large
Height (km)
Speed (km/s)
/
Latitude / Longitude
Inclination (degrees)
Orbital Period (minutes)
Azimuth
Elevation
Range (km)
Doppler Factor

Next 0 passes for location: London (51.5072 / 0.1276)

No passes found over London.
AMOS-4